• în România
  • Lista ţărilor
  • Pe 7 zile
  • Temperatura apei
  • Hartă satelitară
  • Meteo pe hartă
  • Widget-uri
  • user-avatar
    Intrare

    Meteo pe oră la Skraby

    Astăzi, 25 Iunie, Luni

    Timp Temperatura Precipitaţii Vânt Presiune Umiditate
    00:00 +9°C° 0 mm 2 m/s 744 mmHg 97%
    01:00 +8°C° 0 mm 2 m/s 744 mmHg 97%
    02:00 +8°C° 0 mm 2 m/s 745 mmHg 97%
    03:00 +8°C° 0 mm 2 m/s 745 mmHg 96%
    04:00 +9°C° 0 mm 2 m/s 745 mmHg 95%
    05:00 +9°C° 0 mm 2 m/s 745 mmHg 93%
    06:00 +12°C° 0 mm 2 m/s 746 mmHg 83%
    07:00 +15°C° 0 mm 2 m/s 746 mmHg 73%
    08:00 +17°C° 0 mm 3 m/s 746 mmHg 63%
    09:00 +18°C° 0 mm 3 m/s 746 mmHg 57%
    10:00 +19°C° 0 mm 3 m/s 746 mmHg 52%
    11:00 +20°C° 0 mm 4 m/s 746 mmHg 47%
    12:00 +21°C° 0,1 mm 4 m/s 746 mmHg 47%
    13:00 +21°C° 0,1 mm 4 m/s 747 mmHg 47%
    14:00 +22°C° 0,1 mm 4 m/s 747 mmHg 47%
    15:00 +21°C° 0,1 mm 4 m/s 747 mmHg 51%
    16:00 +20°C° 0,1 mm 3 m/s 747 mmHg 55%
    17:00 +20°C° 0,1 mm 3 m/s 747 mmHg 59%
    18:00 +18°C° 0,1 mm 3 m/s 747 mmHg 68%
    19:00 +17°C° 0,1 mm 2 m/s 748 mmHg 77%
    20:00 +15°C° 0,1 mm 1 m/s 748 mmHg 87%
    21:00 +14°C° 0 mm 1 m/s 748 mmHg 90%
    22:00 +13°C° 0 mm 1 m/s 748 mmHg 93%
    23:00 +12°C° 0 mm 1 m/s 749 mmHg 96%

    Mâine, 26 Iunie, Marţi

    Timp Temperatura Precipitaţii Vânt Presiune Umiditate
    00:00 +12°C° 0 mm 1 m/s 749 mmHg 96%
    01:00 +12°C° 0 mm 1 m/s 749 mmHg 96%
    02:00 +11°C° 0 mm 1 m/s 750 mmHg 97%
    03:00 +12°C° 0 mm 1 m/s 750 mmHg 96%
    04:00 +12°C° 0 mm 1 m/s 750 mmHg 95%
    05:00 +12°C° 0 mm 1 m/s 750 mmHg 94%
    06:00 +15°C° 0 mm 1 m/s 751 mmHg 85%
    07:00 +18°C° 0 mm 1 m/s 751 mmHg 75%
    08:00 +20°C° 0 mm 1 m/s 751 mmHg 66%
    09:00 +22°C° 0 mm 1 m/s 751 mmHg 59%
    10:00 +23°C° 0 mm 1 m/s 752 mmHg 51%
    11:00 +25°C° 0 mm 1 m/s 752 mmHg 44%
    12:00 +25°C° 0 mm 1 m/s 752 mmHg 44%
    13:00 +25°C° 0 mm 1 m/s 751 mmHg 44%
    14:00 +25°C° 0 mm 1 m/s 751 mmHg 44%
    15:00 +25°C° 0 mm 1 m/s 751 mmHg 46%
    16:00 +25°C° 0 mm 1 m/s 751 mmHg 48%
    17:00 +24°C° 0 mm 1 m/s 751 mmHg 51%
    18:00 +23°C° 0 mm 1 m/s 751 mmHg 59%
    19:00 +21°C° 0 mm 1 m/s 752 mmHg 67%
    20:00 +19°C° 0 mm 1 m/s 752 mmHg 75%
    21:00 +18°C° 0 mm 1 m/s 752 mmHg 79%
    22:00 +16°C° 0 mm 1 m/s 752 mmHg 82%
    23:00 +15°C° 0 mm 1 m/s 752 mmHg 86%

    Poimâine, 27 Iunie, Miercuri

    Timp Temperatura Precipitaţii Vânt Presiune Umiditate
    00:00 +15°C° 0 mm 1 m/s 752 mmHg 88%
    01:00 +14°C° 0 mm 1 m/s 752 mmHg 90%
    02:00 +14°C° 0 mm 1 m/s 753 mmHg 92%
    03:00 +14°C° 0 mm 1 m/s 753 mmHg 90%
    04:00 +15°C° 0 mm 1 m/s 753 mmHg 88%
    05:00 +15°C° 0 mm 1 m/s 753 mmHg 86%
    06:00 +18°C° 0 mm 2 m/s 753 mmHg 77%
    07:00 +20°C° 0 mm 2 m/s 753 mmHg 69%
    08:00 +23°C° 0 mm 2 m/s 754 mmHg 61%
    09:00 +24°C° 0 mm 2 m/s 754 mmHg 55%
    10:00 +26°C° 0 mm 2 m/s 753 mmHg 48%
    11:00 +27°C° 0 mm 2 m/s 753 mmHg 42%
    12:00 +27°C° 0 mm 3 m/s 753 mmHg 42%
    13:00 +28°C° 0 mm 3 m/s 753 mmHg 41%
    14:00 +28°C° 0 mm 3 m/s 753 mmHg 41%
    15:00 +28°C° 0 mm 3 m/s 753 mmHg 44%
    16:00 +27°C° 0 mm 3 m/s 753 mmHg 47%
    17:00 +27°C° 0 mm 2 m/s 752 mmHg 49%
    18:00 +25°C° 0 mm 2 m/s 753 mmHg 58%
    19:00 +23°C° 0 mm 2 m/s 753 mmHg 66%
    20:00 +20°C° 0 mm 2 m/s 753 mmHg 75%
    21:00 +19°C° 0 mm 2 m/s 753 mmHg 77%
    22:00 +18°C° 0 mm 2 m/s 753 mmHg 80%
    23:00 +17°C° 0 mm 2 m/s 753 mmHg 82%

    28 Iunie, Joi

    Timp Temperatura Precipitaţii Vânt Presiune Umiditate
    00:00 +16°C° 0 mm 2 m/s 753 mmHg 83%
    01:00 +16°C° 0 mm 2 m/s 753 mmHg 84%
    02:00 +15°C° 0 mm 2 m/s 753 mmHg 85%
    03:00 +16°C° 0 mm 2 m/s 753 mmHg 84%
    04:00 +16°C° 0 mm 2 m/s 753 mmHg 82%
    05:00 +17°C° 0 mm 2 m/s 753 mmHg 81%
    06:00 +19°C° 0 mm 2 m/s 753 mmHg 73%
    07:00 +21°C° 0 mm 3 m/s 753 mmHg 66%
    08:00 +24°C° 0 mm 3 m/s 753 mmHg 59%
    09:00 +25°C° 0 mm 3 m/s 753 mmHg 53%
    10:00 +27°C° 0 mm 3 m/s 753 mmHg 48%
    11:00 +28°C° 0 mm 4 m/s 753 mmHg 42%
    12:00 +28°C° 0 mm 3 m/s 752 mmHg 41%
    13:00 +29°C° 0 mm 3 m/s 752 mmHg 41%
    14:00 +29°C° 0 mm 3 m/s 752 mmHg 40%
    15:00 +29°C° 0 mm 3 m/s 751 mmHg 42%
    16:00 +28°C° 0 mm 3 m/s 751 mmHg 44%
    17:00 +28°C° 0 mm 3 m/s 751 mmHg 46%
    18:00 +26°C° 0 mm 2 m/s 751 mmHg 56%
    19:00 +24°C° 0 mm 2 m/s 750 mmHg 65%
    20:00 +21°C° 0 mm 2 m/s 750 mmHg 74%
    21:00 +20°C° 0 mm 2 m/s 750 mmHg 76%
    22:00 +19°C° 0 mm 2 m/s 750 mmHg 78%
    23:00 +18°C° 0 mm 2 m/s 750 mmHg 81%

    29 Iunie, Vineri

    Timp Temperatura Precipitaţii Vânt Presiune Umiditate
    00:00 +17°C° 0 mm 2 m/s 750 mmHg 81%
    01:00 +17°C° 0 mm 2 m/s 750 mmHg 82%
    02:00 +16°C° 0 mm 2 m/s 750 mmHg 83%
    03:00 +16°C° 0 mm 2 m/s 749 mmHg 83%
    04:00 +17°C° 0 mm 2 m/s 749 mmHg 83%
    05:00 +17°C° 0 mm 2 m/s 749 mmHg 82%
    06:00 +19°C° 0 mm 2 m/s 748 mmHg 74%
    07:00 +21°C° 0 mm 3 m/s 748 mmHg 66%
    08:00 +25°C° 0 mm 3 m/s 748 mmHg 57%
    09:00 +26°C° 0 mm 3 m/s 747 mmHg 52%
    10:00 +27°C° 0 mm 3 m/s 747 mmHg 46%
    11:00 +29°C° 0 mm 3 m/s 747 mmHg 41%
    12:00 +29°C° 0 mm 3 m/s 746 mmHg 40%
    13:00 +30°C° 0 mm 3 m/s 746 mmHg 40%
    14:00 +30°C° 0 mm 3 m/s 745 mmHg 39%
    15:00 +30°C° 0 mm 3 m/s 745 mmHg 43%
    16:00 +29°C° 0 mm 3 m/s 744 mmHg 47%
    17:00 +29°C° 0 mm 3 m/s 743 mmHg 51%
    18:00 +27°C° 0 mm 2 m/s 743 mmHg 59%
    19:00 +25°C° 0 mm 2 m/s 743 mmHg 68%
    20:00 +24°C° 0 mm 2 m/s 742 mmHg 76%
    21:00 +23°C° 0 mm 2 m/s 742 mmHg 79%
    22:00 +20°C° 0 mm 2 m/s 742 mmHg 82%
    23:00 +19°C° 0 mm 2 m/s 741 mmHg 84%

    30 Iunie, Sâmbătă

    Timp Temperatura Precipitaţii Vânt Presiune Umiditate
    00:00 +19°C° 0 mm 2 m/s 741 mmHg 87%
    01:00 +19°C° 0 mm 3 m/s 740 mmHg 90%
    02:00 +19°C° 0 mm 3 m/s 740 mmHg 92%
    03:00 +19°C° 0 mm 3 m/s 740 mmHg 93%
    04:00 +19°C° 0 mm 2 m/s 739 mmHg 93%
    05:00 +19°C° 0 mm 2 m/s 739 mmHg 94%
    06:00 +21°C° 0,1 mm 2 m/s 739 mmHg 87%
    07:00 +23°C° 0,1 mm 2 m/s 738 mmHg 80%
    08:00 +25°C° 0,1 mm 3 m/s 738 mmHg 73%
    09:00 +25°C° 1,4 mm 2 m/s 738 mmHg 76%
    10:00 +25°C° 1,4 mm 2 m/s 737 mmHg 79%
    11:00 +26°C° 1,4 mm 2 m/s 737 mmHg 81%
    12:00 +25°C° 1,9 mm 3 m/s 737 mmHg 84%
    13:00 +24°C° 1,9 mm 3 m/s 737 mmHg 87%
    14:00 +21°C° 1,9 mm 4 m/s 737 mmHg 90%
    15:00 +19°C° 0,9 mm 4 m/s 737 mmHg 92%
    16:00 +16°C° 0,9 mm 5 m/s 738 mmHg 93%
    17:00 +14°C° 0,9 mm 5 m/s 738 mmHg 95%
    18:00 +14°C° 0,2 mm 5 m/s 738 mmHg 95%
    19:00 +13°C° 0,2 mm 5 m/s 738 mmHg 94%
    20:00 +13°C° 0,2 mm 4 m/s 738 mmHg 94%
    21:00 +13°C° 0,3 mm 4 m/s 739 mmHg 94%
    22:00 +12°C° 0,3 mm 4 m/s 740 mmHg 94%
    23:00 +12°C° 0,3 mm 5 m/s 740 mmHg 94%
    Arată mai mult